EN

Hourly Weather Pavlovka

Today, 24 October, Saturday

Time Temperature Precipitation Wind Pressure Humidity
00:00 +9°C° 0 mm 5 mps 741 mmHg 95%
01:00 +10°C° 0.3 mm 5 mps 741 mmHg 94%
02:00 +10°C° 0.3 mm 5 mps 741 mmHg 93%
03:00 +10°C° 0.3 mm 6 mps 740 mmHg 93%
04:00 +10°C° 0.1 mm 6 mps 740 mmHg 93%
05:00 +10°C° 0.1 mm 5 mps 740 mmHg 93%
06:00 +10°C° 0.1 mm 5 mps 740 mmHg 93%
07:00 +10°C° 0.1 mm 5 mps 740 mmHg 90%
08:00 +10°C° 0.1 mm 5 mps 741 mmHg 87%
09:00 +10°C° 0.1 mm 6 mps 741 mmHg 84%
10:00 +10°C° 0.1 mm 5 mps 741 mmHg 83%
11:00 +10°C° 0.1 mm 5 mps 742 mmHg 82%
12:00 +10°C° 0.1 mm 5 mps 742 mmHg 81%
13:00 +10°C° 0 mm 5 mps 742 mmHg 80%
14:00 +10°C° 0 mm 5 mps 743 mmHg 79%
15:00 +11°C° 0 mm 4 mps 743 mmHg 78%
16:00 +10°C° 0 mm 4 mps 743 mmHg 78%
17:00 +10°C° 0 mm 4 mps 744 mmHg 78%
18:00 +8°C° 0 mm 4 mps 744 mmHg 79%
19:00 +9°C° 0 mm 3 mps 744 mmHg 78%
20:00 +9°C° 0 mm 3 mps 745 mmHg 78%
21:00 +9°C° 0 mm 2 mps 745 mmHg 78%
22:00 +8°C° 0 mm 2 mps 745 mmHg 78%
23:00 +8°C° 0 mm 2 mps 744 mmHg 79%

Tomorrow, 25 October, Sunday

Time Temperature Precipitation Wind Pressure Humidity
00:00 +8°C° 0 mm 2 mps 744 mmHg 80%
01:00 +7°C° 0 mm 2 mps 744 mmHg 81%
02:00 +7°C° 0 mm 2 mps 744 mmHg 82%
03:00 +7°C° 0 mm 2 mps 744 mmHg 84%
04:00 +7°C° 0 mm 2 mps 744 mmHg 84%
05:00 +8°C° 0 mm 1 mps 743 mmHg 85%
06:00 +7°C° 0 mm 1 mps 743 mmHg 86%
07:00 +8°C° 0.6 mm 1 mps 743 mmHg 89%
08:00 +8°C° 0.6 mm 1 mps 742 mmHg 91%
09:00 +8°C° 0.6 mm 1 mps 742 mmHg 93%
10:00 +8°C° 1.2 mm 1 mps 742 mmHg 94%
11:00 +8°C° 1.2 mm 1 mps 742 mmHg 94%
12:00 +7°C° 1.2 mm 2 mps 741 mmHg 94%
13:00 +7°C° 0.8 mm 2 mps 742 mmHg 94%
14:00 +8°C° 0.8 mm 1 mps 742 mmHg 95%
15:00 +8°C° 0.8 mm 1 mps 743 mmHg 95%
16:00 +7°C° 0.1 mm 2 mps 743 mmHg 91%
17:00 +7°C° 0.1 mm 3 mps 744 mmHg 88%
18:00 +6°C° 0.1 mm 5 mps 745 mmHg 84%
19:00 +5°C° 0 mm 4 mps 745 mmHg 86%
20:00 +4°C° 0 mm 3 mps 746 mmHg 88%
21:00 +4°C° 0 mm 2 mps 747 mmHg 91%
22:00 +3°C° 0 mm 3 mps 747 mmHg 91%
23:00 +3°C° 0 mm 3 mps 747 mmHg 92%

Day after tomorrow, 26 October, Monday

Time Temperature Precipitation Wind Pressure Humidity
00:00 +3°C° 0 mm 4 mps 748 mmHg 92%
01:00 +3°C° 0 mm 4 mps 749 mmHg 93%
02:00 +2°C° 0 mm 3 mps 749 mmHg 93%
03:00 +1°C° 0 mm 3 mps 750 mmHg 93%
04:00 +1°C° 0 mm 3 mps 750 mmHg 93%
05:00 +1°C° 0 mm 3 mps 750 mmHg 94%
06:00 +1°C° 0 mm 2 mps 751 mmHg 95%
07:00 +1°C° 0 mm 3 mps 751 mmHg 90%
08:00 +2°C° 0 mm 3 mps 751 mmHg 86%
09:00 +3°C° 0 mm 3 mps 751 mmHg 81%
10:00 +3°C° 0 mm 3 mps 752 mmHg 81%
11:00 +4°C° 0 mm 3 mps 752 mmHg 81%
12:00 +5°C° 0 mm 2 mps 752 mmHg 80%
13:00 +5°C° 0 mm 3 mps 752 mmHg 79%
14:00 +5°C° 0 mm 4 mps 752 mmHg 77%
15:00 +5°C° 0 mm 5 mps 752 mmHg 76%
16:00 +4°C° 0 mm 4 mps 753 mmHg 77%
17:00 +3°C° 0 mm 4 mps 753 mmHg 79%
18:00 +1°C° 0 mm 4 mps 754 mmHg 80%
19:00 +2°C° 0 mm 3 mps 754 mmHg 81%
20:00 +1°C° 0 mm 3 mps 755 mmHg 83%
21:00 +1°C° 0 mm 2 mps 756 mmHg 84%
22:00 -1°C° 0 mm 2 mps 756 mmHg 85%
23:00 -1°C° 0 mm 2 mps 756 mmHg 86%

, 27 October, Tuesday

Time Temperature Precipitation Wind Pressure Humidity
00:00 0°C° 0 mm 1 mps 757 mmHg 87%
01:00 0°C° 0 mm 1 mps 757 mmHg 87%
02:00 0°C° 0 mm 1 mps 757 mmHg 87%
03:00 0°C° 0 mm 1 mps 758 mmHg 87%
04:00 0°C° 0 mm 1 mps 758 mmHg 87%
05:00 0°C° 0 mm 1 mps 758 mmHg 87%
06:00 -1°C° 0 mm 0 mps 759 mmHg 87%
07:00 -1°C° 0 mm 0 mps 759 mmHg 82%
08:00 0°C° 0 mm 0 mps 759 mmHg 78%
09:00 +1°C° 0 mm 0 mps 760 mmHg 73%
10:00 +3°C° 0 mm 1 mps 760 mmHg 68%
11:00 +4°C° 0 mm 1 mps 760 mmHg 63%
12:00 +5°C° 0 mm 1 mps 760 mmHg 58%
13:00 +5°C° 0 mm 1 mps 760 mmHg 58%
14:00 +4°C° 0 mm 0 mps 760 mmHg 58%
15:00 +4°C° 0 mm 0 mps 760 mmHg 58%
16:00 +3°C° 0 mm 0 mps 760 mmHg 63%
17:00 +2°C° 0 mm 0 mps 760 mmHg 68%
18:00 +1°C° 0 mm 0 mps 760 mmHg 73%
19:00 +1°C° 0 mm 1 mps 761 mmHg 73%
20:00 +1°C° 0 mm 1 mps 761 mmHg 74%
21:00 +1°C° 0 mm 1 mps 761 mmHg 74%
22:00 +1°C° 0 mm 1 mps 761 mmHg 74%
23:00 +1°C° 0 mm 1 mps 761 mmHg 73%

27 October, Tuesday

Time Temperature Precipitation Wind Pressure Humidity
00:00 0°C° 0 mm 1 mps 757 mmHg 87%
01:00 0°C° 0 mm 1 mps 757 mmHg 87%
02:00 0°C° 0 mm 1 mps 757 mmHg 87%
03:00 0°C° 0 mm 1 mps 758 mmHg 87%
04:00 0°C° 0 mm 1 mps 758 mmHg 87%
05:00 0°C° 0 mm 1 mps 758 mmHg 87%
06:00 -1°C° 0 mm 0 mps 759 mmHg 87%
07:00 -1°C° 0 mm 0 mps 759 mmHg 82%
08:00 0°C° 0 mm 0 mps 759 mmHg 78%
09:00 +1°C° 0 mm 0 mps 760 mmHg 73%
10:00 +3°C° 0 mm 1 mps 760 mmHg 68%
11:00 +4°C° 0 mm 1 mps 760 mmHg 63%
12:00 +5°C° 0 mm 1 mps 760 mmHg 58%
13:00 +5°C° 0 mm 1 mps 760 mmHg 58%
14:00 +4°C° 0 mm 0 mps 760 mmHg 58%
15:00 +4°C° 0 mm 0 mps 760 mmHg 58%
16:00 +3°C° 0 mm 0 mps 760 mmHg 63%
17:00 +2°C° 0 mm 0 mps 760 mmHg 68%
18:00 +1°C° 0 mm 0 mps 760 mmHg 73%
19:00 +1°C° 0 mm 1 mps 761 mmHg 73%
20:00 +1°C° 0 mm 1 mps 761 mmHg 74%
21:00 +1°C° 0 mm 1 mps 761 mmHg 74%
22:00 +1°C° 0 mm 1 mps 761 mmHg 74%
23:00 +1°C° 0 mm 1 mps 761 mmHg 73%

28 October, Wednesday

Time Temperature Precipitation Wind Pressure Humidity
00:00 +1°C° 0 mm 1 mps 761 mmHg 73%
01:00 +1°C° 0 mm 1 mps 761 mmHg 73%
02:00 +1°C° 0 mm 1 mps 761 mmHg 73%
03:00 +1°C° 0 mm 1 mps 761 mmHg 73%
04:00 +1°C° 0 mm 1 mps 761 mmHg 73%
05:00 +1°C° 0 mm 1 mps 762 mmHg 73%
06:00 -1°C° 0 mm 2 mps 762 mmHg 74%
07:00 -1°C° 0 mm 2 mps 762 mmHg 70%
08:00 +1°C° 0 mm 2 mps 762 mmHg 67%
09:00 +2°C° 0 mm 2 mps 762 mmHg 64%
10:00 +4°C° 0 mm 2 mps 762 mmHg 59%
11:00 +5°C° 0 mm 2 mps 762 mmHg 55%
12:00 +5°C° 0 mm 3 mps 762 mmHg 50%
13:00 +6°C° 0 mm 2 mps 762 mmHg 53%
14:00 +6°C° 0 mm 2 mps 762 mmHg 55%
15:00 +6°C° 0 mm 2 mps 762 mmHg 58%
16:00 +4°C° 0 mm 2 mps 762 mmHg 61%
17:00 +3°C° 0 mm 2 mps 762 mmHg 65%
18:00 +1°C° 0 mm 2 mps 762 mmHg 68%
19:00 +1°C° 0 mm 2 mps 762 mmHg 69%
20:00 +1°C° 0 mm 2 mps 762 mmHg 69%
21:00 -1°C° 0 mm 2 mps 762 mmHg 70%
22:00 -1°C° 0 mm 2 mps 762 mmHg 69%
23:00 -1°C° 0 mm 2 mps 762 mmHg 68%

29 October, Thursday

Time Temperature Precipitation Wind Pressure Humidity
00:00 -1°C° 0 mm 2 mps 762 mmHg 67%
01:00 -1°C° 0 mm 2 mps 762 mmHg 68%
02:00 -1°C° 0 mm 2 mps 762 mmHg 68%
03:00 -1°C° 0 mm 2 mps 762 mmHg 69%
04:00 -1°C° 0 mm 2 mps 762 mmHg 70%
05:00 -1°C° 0 mm 2 mps 762 mmHg 70%
06:00 -2°C° 0 mm 2 mps 762 mmHg 71%
07:00 -1°C° 0 mm 2 mps 762 mmHg 67%
08:00 +1°C° 0 mm 2 mps 762 mmHg 63%
09:00 +1°C° 0 mm 3 mps 762 mmHg 59%
10:00 +3°C° 0 mm 3 mps 762 mmHg 56%
11:00 +4°C° 0 mm 3 mps 762 mmHg 53%
12:00 +7°C° 0 mm 3 mps 762 mmHg 50%
13:00 +5°C° 0 mm 3 mps 761 mmHg 53%
14:00 +5°C° 0 mm 3 mps 761 mmHg 55%
15:00 +5°C° 0 mm 3 mps 761 mmHg 58%
16:00 +4°C° 0 mm 3 mps 761 mmHg 62%
17:00 +2°C° 0 mm 3 mps 761 mmHg 67%
18:00 +1°C° 0 mm 3 mps 760 mmHg 72%
19:00 +1°C° 0 mm 3 mps 760 mmHg 72%
20:00 0°C° 0 mm 3 mps 760 mmHg 72%
21:00 0°C° 0 mm 3 mps 760 mmHg 73%
22:00 0°C° 0 mm 3 mps 760 mmHg 72%
23:00 0°C° 0 mm 3 mps 760 mmHg 71%
Show more

We Need Your Consent

Meteoprog and our Service Providers may store and access personal data such as cookies, device identifiers or other similar technologies on your device and process such data to personalise content and ads, as well as provide social media features and to analyse the traffic.

  • Store and/or access information on your device

    Cookies, device identifiers or other information can be stored or accessed on your device for the purposes indicated above.

  • Personalised ads and content, ad and content measurement, audience insights, and products development

    Ads and content can be personalised based on a profile. More data can be added to better personalise ads and content. Ad and content performance can be measured. Insights about the audience who saw the ads and content can be derived. Such data can be used to develop or improve user’s experience, systems and software.

By clicking ‘I Agree’ you will allow the use of indicated cookies, device identifiers, web beacons or other similar technologies. Your settings can be changed in the browser on your device.

For certain purposes, legitimate interests may be relied on, rather than consent. You can read more about this in our Privacy and Cookie Policy.